Vorticity
-3 -9 -15 -18 -21 -22 -19 -11 -2 4 9 14 19 22 23 20 18 18 18 17 15 14 13 13 14 15 16 17 16 14 12 10 8 7 7 7 7 5 4 4 5 5 5 5 6 9 11 12 12 13 13 14 14 13 11 10 9 9 10 10 8 7 7 9 10 12 13 15 14
-2 -4 -7 -10 -15 -21 -24 -21 -12 -5 1 7 16 23 27 25 21 18 17 15 13 10 8 7 7 7 9 10 11 11 10 8 8 9 10 10 7 4 3 4 5 6 6 7 9 10 11 12 12 12 12 12 13 12 10 9 10 10 10 10 8 8 9 10 10 10 11 10 8
-1 -4 -5 -7 -12 -18 -25 -28 -22 -13 -4 5 14 22 26 25 20 17 15 15 13 11 9 7 6 5 4 5 6 7 7 7 8 8 8 6 3 2 4 7 8 9 10 10 10 10 11 11 11 11 11 11 11 10 9 9 10 11 11 10 9 9 8 7 6 6 5 3 2
0 -3 -6 -9 -14 -20 -25 -29 -26 -18 -6 7 16 22 23 22 18 16 15 15 16 15 14 13 11 9 7 5 6 8 10 12 12 12 10 6 4 6 9 11 12 12 12 12 11 10 10 10 10 10 11 10 10 10 9 9 12 13 12 10 9 7 6 4 4 3 1 -1 0
4 -2 -6 -7 -12 -17 -21 -24 -22 -16 -5 10 19 22 21 18 16 15 15 15 16 16 16 16 15 14 13 12 16 20 23 23 24 26 25 19 18 16 14 13 13 14 14 13 11 10 9 9 10 10 10 10 10 10 10 11 14 14 12 10 7 6 5 4 4 2 -0 -2 -2
11 4 1 0 -0 -3 -7 -12 -14 -10 -1 13 20 20 17 14 14 14 15 15 15 15 15 15 16 16 16 18 19 20 22 22 21 20 19 20 25 23 18 13 14 15 15 13 12 10 9 9 10 10 10 10 10 11 12 14 15 13 11 8 7 7 7 6 5 3 -0 -3 -5
15 12 11 11 13 11 6 -3 -7 -4 6 18 20 18 14 12 13 14 16 16 15 15 14 14 16 17 19 19 19 20 21 20 16 12 11 16 24 23 19 15 16 16 14 13 12 11 10 10 11 11 11 10 10 11 12 14 14 12 10 8 8 8 9 8 6 3 -0 -4 -8
17 14 14 17 18 18 13 4 -0 5 14 24 21 16 12 11 13 15 17 18 16 15 13 11 11 12 14 18 23 21 16 13 14 16 19 27 26 23 18 16 15 14 13 12 12 11 11 12 15 14 12 10 10 10 11 12 11 10 9 8 8 8 8 7 5 3 0 -4 -8
22 20 18 20 19 18 16 10 10 16 23 26 20 15 12 11 13 15 17 19 18 15 12 7 5 4 6 12 17 20 19 18 14 15 18 26 24 20 16 14 12 11 10 10 11 13 16 18 16 12 8 6 6 8 9 10 9 8 7 7 7 7 7 6 4 3 1 -2 -6
25 25 22 20 20 19 19 17 23 27 28 23 18 14 12 11 12 13 15 17 17 15 11 3 -0 0 5 12 16 20 23 24 20 18 19 21 20 17 13 11 10 10 10 10 14 18 18 14 10 7 4 4 5 7 8 7 6 6 6 6 7 7 7 6 5 4 3 1 -3
25 24 22 21 22 23 25 28 33 32 26 16 12 10 8 8 10 12 12 12 10 8 5 -0 -4 0 9 19 21 22 22 22 20 18 18 17 17 15 13 12 11 12 13 17 20 18 14 8 7 5 4 3 5 6 5 2 4 5 7 7 8 8 8 7 8 7 7 5 1
24 23 22 21 23 27 32 36 36 29 19 10 7 5 4 4 7 8 7 5 2 -2 -5 -6 -6 3 14 24 23 22 20 19 18 16 16 18 18 17 16 15 14 14 15 17 15 11 7 5 4 2 1 1 2 3 3 3 4 5 6 7 8 8 8 8 9 10 10 9 4
17 16 14 14 18 25 32 38 36 27 15 4 1 -0 -0 0 2 2 0 -1 -4 -7 -9 -8 -2 8 18 22 19 17 16 17 16 16 18 20 20 19 17 16 14 12 10 7 4 2 2 3 2 1 -0 -0 1 2 3 4 4 5 6 7 7 8 8 8 10 11 12 11 5
7 4 1 0 3 10 20 31 34 27 16 3 -1 -2 -2 -1 -1 -2 -2 -3 -3 -2 0 5 13 20 22 20 15 13 13 14 14 16 17 18 17 16 14 12 10 7 3 -2 -4 -2 1 4 3 2 1 1 2 3 4 4 4 4 5 6 7 7 8 9 10 12 13 12 4
-1 -6 -10 -13 -12 -6 5 21 31 29 20 9 4 3 3 3 3 2 3 3 6 11 17 23 26 25 21 16 12 10 10 10 11 11 12 12 10 9 8 6 5 3 1 -3 -4 -1 3 7 6 4 3 3 4 4 4 3 3 3 4 5 7 8 9 9 10 12 13 12 6
-4 -10 -15 -16 -13 -8 0 13 23 25 22 15 12 10 10 11 11 12 13 15 20 24 27 28 26 22 18 13 12 11 10 9 9 8 8 7 5 4 3 4 5 5 3 2 0 2 4 7 7 6 5 4 3 2 2 1 1 2 3 5 7 9 10 11 10 11 11 11 6
-2 -8 -11 -8 -2 2 6 11 15 16 14 11 10 11 12 14 15 16 18 21 24 26 25 24 21 19 16 14 13 13 13 13 12 11 10 9 7 5 3 3 5 4 4 5 4 4 4 5 5 4 3 2 1 -0 -1 -1 -1 -0 1 3 7 10 13 15 14 13 12 12 10
5 -0 -1 3 10 13 13 12 11 8 5 2 3 5 7 10 12 13 14 16 17 17 16 15 14 14 13 13 13 13 13 14 14 14 14 14 13 11 8 6 3 2 1 2 2 2 1 1 -0 -0 0 1 -1 -2 -2 -2 -2 -2 -2 -1 5 12 16 18 17 16 15 14 15
14 10 9 12 16 17 16 13 9 5 1 -1 0 2 5 7 8 8 9 10 9 8 8 7 6 6 6 7 7 8 8 9 10 11 12 12 13 13 11 9 6 3 2 1 0 -0 -0 -0 -1 -0 0 -0 -1 -1 0 2 -0 -3 -5 -4 4 11 16 16 14 12 11 13 16
18 15 14 15 16 15 13 10 6 3 1 0 3 6 8 10 9 8 7 7 6 4 3 1 0 -0 0 1 2 3 4 4 4 4 4 4 5 6 6 6 4 3 2 1 2 2 4 5 6 6 5 3 3 3 4 4 -1 -5 -7 -7 2 10 13 12 8 6 8 14 18
16 15 14 13 12 10 7 5 3 2 1 3 5 8 10 12 11 9 8 6 5 3 0 -3 -4 -4 -3 -1 1 3 5 4 3 3 2 2 3 4 6 6 6 6 5 5 5 6 7 9 9 9 8 7 7 6 4 1 -3 -6 -7 -7 -0 7 12 10 8 10 16 23 27
12 12 11 9 7 5 4 3 2 2 3 4 6 8 9 9 9 8 8 6 5 3 -0 -4 -6 -6 -4 -2 1 4 7 8 7 6 6 6 7 8 9 10 9 9 10 9 9 9 8 8 8 7 7 7 7 6 5 4 1 -0 -1 -1 -2 2 7 10 13 19 26 31 32
10 10 9 8 6 5 5 4 4 4 5 6 7 7 7 6 6 6 6 6 5 4 2 -1 -3 -4 -5 -4 -1 3 7 11 11 10 10 9 9 10 11 11 11 11 11 12 11 11 9 8 6 6 6 6 8 9 10 13 12 11 11 11 4 1 2 7 14 21 25 26 26
10 10 10 10 8 8 8 8 9 9 10 10 10 8 6 4 4 4 4 5 5 5 4 3 -0 -4 -6 -7 -3 3 9 14 15 15 14 13 13 13 14 15 16 16 16 17 17 16 16 16 16 16 16 15 16 17 19 22 25 26 26 27 18 9 3 4 11 14 14 12 13
10 12 12 12 12 12 12 13 14 15 15 14 12 9 6 4 3 3 3 3 3 3 2 1 -3 -6 -7 -4 4 11 17 20 21 21 20 21 21 22 23 24 24 25 25 26 27 28 29 31 32 32 32 32 32 32 34 36 39 40 39 35 24 13 5 5 8 8 6 5 5
12 13 14 14 14 15 15 16 16 17 16 15 12 9 6 4 3 3 3 2 1 0 -0 -1 -1 2 7 14 21 26 28 30 29 28 27 27 27 27 27 27 27 27 28 29 30 31 33 34 35 36 37 39 41 44 47 51 52 49 41 30 18 11 7 7 7 7 6 6 6
12 13 14 14 14 14 14 14 14 14 13 12 10 8 6 6 5 6 6 6 6 7 9 12 18 24 30 35 38 38 38 36 32 29 26 23 22 20 19 19 18 18 18 18 18 18 19 20 21 23 26 29 33 37 42 46 47 42 33 22 15 11 10 9 8 8 8 9 8
11 11 12 11 11 10 10 10 10 11 11 12 12 12 12 12 13 14 15 16 18 22 26 31 34 36 37 39 40 39 35 29 24 19 14 12 10 8 8 7 6 6 6 6 6 6 7 8 9 10 12 14 17 19 22 25 25 23 20 16 13 12 10 10 9 9 9 8 8
11 11 11 10 10 9 8 9 10 11 13 15 16 18 20 21 22 23 25 26 29 32 34 36 34 30 27 24 26 25 22 16 10 6 4 2 2 2 2 2 2 2 2 3 3 4 5 6 6 7 7 7 7 8 9 10 10 11 11 10 10 9 9 8 8 7 7 7 7
11 11 11 11 10 9 9 9 10 11 13 15 17 19 21 23 25 26 27 27 27 27 27 25 21 16 11 7 7 8 7 5 2 1 1 2 3 3 4 5 5 5 4 4 3 4 4 4 5 5 5 5 5 6 6 6 7 7 7 7 7 7 6 6 6 6 7 7 7
8 9 10 10 10 9 8 8 8 9 10 11 12 13 14 15 16 16 16 15 14 12 11 9 6 2 -2 -5 -3 -1 1 2 2 4 5 6 6 7 8 8 8 7 6 4 3 2 2 3 3 3 4 4 5 5 5 6 6 6 6 6 6 5 5 5 5 6 6 7 8
1 3 5 7 8 8 7 6 6 6 6 6 6 6 6 6 6 6 5 4 2 0 -1 -2 -4 -6 -7 -7 -5 -2 1 4 5 6 6 6 6 7 7 7 7 6 5 3 3 2 2 2 2 3 4 4 5 5 5 5 5 5 5 5 5 4 4 4 4 5 6 7 7
-4 -3 -2 0 2 4 5 5 5 4 4 4 4 4 3 3 3 3 2 1 -1 -2 -3 -4 -3 -2 -1 0 2 3 5 6 6 6 5 4 4 4 4 4 5 4 4 4 4 4 4 3 3 4 4 5 5 5 5 5 5 5 5 5 5 5 4 4 5 5 6 7 7
-5 -5 -5 -3 -1 0 2 2 2 2 2 2 2 2 2 2 3 3 3 3 2 2 2 3 4 6 6 7 6 5 5 4 4 4 3 2 2 2 3 4 4 5 5 5 6 5 4 4 4 5 5 6 6 5 5 5 5 5 5 5 5 5 5 5 5 5 6 6 7
-0 -2 -3 -3 -2 -2 -2 -2 -2 -1 -0 0 1 1 1 1 2 4 5 6 6 6 8 9 9 8 7 5 4 4 4 4 5 5 5 4 3 3 4 5 5 5 6 6 5 5 5 5 5 6 6 6 6 6 5 5 5 5 5 5 5 6 6 5 5 5 6 6 7
4 2 0 -1 -2 -3 -3 -3 -2 -0 1 2 2 2 2 2 4 6 7 8 8 9 10 9 8 5 3 2 3 5 7 8 8 8 7 6 5 5 6 6 5 5 5 5 6 6 6 6 6 6 6 6 6 5 5 5 5 5 5 6 6 6 6 6 6 6 6 6 7
6 5 4 3 2 2 2 2 2 3 4 6 5 5 5 6 7 9 10 10 10 10 9 7 5 4 3 4 6 8 10 11 10 9 8 7 6 6 6 6 5 5 6 7 8 8 7 7 6 6 6 6 5 5 5 4 4 5 5 6 6 7 7 7 6 6 6 7 7
8 7 6 6 6 6 5 5 5 5 6 7 7 7 7 8 9 10 10 10 9 7 6 5 6 6 7 8 9 10 11 12 11 9 8 7 7 6 6 6 6 6 7 9 9 9 8 7 6 6 5 5 5 5 5 5 5 6 6 7 7 8 8 7 7 7 7 7 8
9 9 8 8 8 7 7 6 6 6 6 6 6 6 7 8 8 8 7 6 4 3 3 5 7 9 11 12 14 16 17 16 13 10 8 7 6 5 5 7 7 8 8 10 10 9 8 7 7 6 6 6 6 6 6 6 6 7 7 8 8 8 8 8 8 8 8 8 9
10 10 10 10 10 9 9 9 8 7 6 5 5 5 5 5 4 3 2 1 1 2 4 5 6 8 11 15 20 24 25 23 16 12 8 7 6 6 6 8 9 9 9 9 9 9 9 8 8 7 7 6 7 7 7 7 7 8 8 9 8 8 9 9 9 9 9 9 9
11 11 11 11 11 11 11 11 10 10 9 8 7 6 5 3 2 2 1 1 2 4 4 5 6 8 11 16 19 19 17 13 8 5 4 6 6 7 7 8 8 9 9 10 10 9 9 9 8 8 7 7 7 7 7 7 8 8 9 9 9 9 9 9 9 9 9 8 8
Height
5674 5678 5681 5684 5686 5688 5689 5691 5693 5695 5696 5698 5699 5701 5703 5704 5705 5706 5708 5710 5712 5714 5715 5717 5719 5720 5722 5724 5725 5727 5729 5732 5734 5735 5736 5737 5738 5739 5740 5740 5741 5743 5744 5746 5749 5751 5753 5754 5756 5757 5758 5759 5761 5762 5764 5765 5766 5766 5767 5768 5768 5769 5769 5770 5771 5772 5772 5773 5774
5673 5676 5679 5681 5683 5685 5687 5689 5690 5692 5694 5695 5697 5698 5700 5701 5702 5704 5705 5707 5709 5712 5714 5716 5717 5719 5720 5722 5724 5726 5728 5730 5731 5732 5734 5734 5735 5735 5736 5736 5738 5740 5743 5745 5747 5749 5751 5752 5753 5754 5756 5757 5759 5759 5761 5762 5763 5764 5764 5765 5765 5766 5766 5767 5768 5769 5769 5770 5771
5673 5675 5677 5679 5681 5683 5684 5686 5688 5690 5692 5693 5695 5696 5698 5699 5700 5702 5703 5705 5707 5709 5712 5714 5715 5717 5719 5720 5722 5724 5725 5727 5728 5729 5730 5731 5731 5731 5731 5733 5736 5739 5742 5744 5745 5747 5748 5749 5751 5752 5753 5754 5756 5757 5758 5759 5760 5761 5761 5762 5762 5763 5763 5764 5765 5766 5767 5768 5769
5673 5675 5676 5678 5680 5681 5683 5685 5687 5689 5691 5692 5694 5695 5697 5698 5699 5700 5702 5704 5705 5707 5709 5712 5714 5715 5717 5719 5720 5721 5723 5724 5725 5726 5726 5726 5726 5727 5729 5733 5736 5738 5740 5741 5742 5744 5745 5747 5748 5749 5750 5751 5753 5754 5755 5756 5757 5757 5758 5758 5759 5759 5760 5762 5763 5764 5765 5766 5767
5672 5674 5676 5678 5679 5681 5682 5684 5686 5688 5690 5692 5694 5695 5696 5697 5698 5699 5700 5702 5704 5706 5708 5710 5712 5714 5715 5717 5719 5720 5721 5722 5724 5724 5724 5722 5723 5726 5729 5733 5734 5736 5737 5739 5740 5742 5743 5744 5745 5746 5747 5748 5749 5750 5751 5753 5754 5754 5755 5755 5756 5757 5759 5760 5761 5762 5762 5763 5764
5671 5673 5676 5679 5680 5681 5683 5684 5686 5688 5690 5692 5693 5694 5695 5695 5696 5698 5699 5700 5702 5704 5706 5709 5710 5712 5713 5715 5718 5719 5720 5721 5726 5727 5724 5723 5723 5726 5729 5730 5732 5733 5734 5736 5738 5739 5740 5741 5742 5743 5744 5745 5746 5747 5749 5749 5750 5751 5752 5753 5754 5755 5756 5758 5759 5759 5759 5760 5761
5670 5673 5676 5679 5680 5681 5683 5684 5686 5688 5689 5691 5692 5693 5694 5694 5695 5696 5698 5699 5701 5703 5705 5708 5709 5710 5710 5712 5714 5716 5718 5719 5722 5724 5723 5721 5723 5725 5726 5728 5729 5730 5732 5734 5735 5736 5738 5739 5739 5740 5741 5742 5744 5745 5746 5747 5748 5749 5749 5750 5752 5753 5754 5755 5755 5756 5757 5758 5759
5671 5674 5676 5677 5679 5681 5682 5683 5685 5687 5688 5689 5690 5691 5692 5693 5694 5695 5696 5698 5699 5701 5703 5705 5708 5709 5710 5709 5710 5711 5713 5714 5717 5719 5719 5719 5720 5722 5724 5725 5727 5728 5729 5731 5733 5734 5734 5735 5736 5738 5739 5739 5741 5742 5743 5744 5745 5746 5747 5748 5749 5750 5751 5752 5753 5753 5754 5755 5756
5672 5674 5675 5676 5679 5680 5682 5683 5684 5685 5686 5688 5689 5689 5690 5691 5692 5694 5695 5697 5698 5699 5700 5702 5704 5707 5709 5709 5709 5709 5710 5711 5714 5716 5716 5716 5718 5719 5721 5722 5724 5726 5727 5729 5730 5731 5733 5734 5734 5735 5736 5737 5738 5739 5740 5742 5743 5744 5745 5746 5747 5748 5749 5749 5750 5750 5751 5752 5754
5671 5673 5674 5675 5677 5679 5682 5683 5683 5684 5685 5687 5689 5690 5690 5691 5692 5692 5694 5697 5697 5699 5700 5700 5701 5703 5705 5708 5708 5708 5709 5711 5713 5714 5714 5714 5715 5716 5718 5720 5721 5723 5725 5726 5728 5729 5730 5731 5731 5732 5733 5734 5736 5736 5738 5740 5741 5741 5743 5744 5744 5745 5746 5746 5747 5748 5748 5749 5751
5669 5670 5672 5673 5674 5678 5680 5681 5682 5683 5684 5686 5688 5689 5690 5691 5691 5691 5692 5695 5699 5701 5702 5702 5700 5701 5702 5704 5704 5705 5707 5709 5710 5711 5712 5712 5713 5714 5716 5717 5719 5720 5722 5725 5726 5727 5727 5728 5729 5729 5731 5732 5733 5734 5736 5738 5739 5739 5740 5741 5742 5742 5743 5744 5744 5745 5746 5747 5749
5666 5668 5669 5671 5673 5676 5678 5679 5680 5681 5682 5684 5685 5687 5688 5689 5689 5689 5691 5694 5698 5701 5704 5704 5704 5702 5701 5701 5702 5703 5704 5707 5708 5709 5709 5709 5710 5712 5714 5715 5716 5718 5721 5723 5725 5725 5725 5725 5726 5728 5729 5730 5731 5732 5734 5735 5736 5737 5737 5738 5739 5740 5740 5741 5742 5743 5743 5745 5747
5664 5666 5668 5670 5672 5674 5675 5676 5677 5678 5679 5680 5683 5684 5685 5686 5686 5687 5689 5691 5694 5697 5700 5703 5704 5702 5701 5701 5701 5702 5703 5704 5706 5706 5706 5707 5708 5709 5711 5713 5714 5716 5718 5720 5722 5723 5722 5724 5724 5725 5727 5728 5729 5730 5731 5732 5733 5734 5735 5736 5736 5737 5738 5739 5740 5740 5741 5743 5745
5662 5664 5667 5669 5670 5671 5673 5674 5674 5675 5677 5678 5680 5682 5682 5682 5684 5685 5687 5688 5691 5694 5695 5697 5697 5698 5698 5699 5699 5699 5699 5701 5702 5703 5703 5705 5706 5708 5709 5710 5711 5713 5715 5717 5719 5719 5720 5721 5722 5723 5724 5725 5726 5727 5728 5729 5730 5731 5732 5733 5734 5735 5736 5737 5738 5738 5739 5741 5744
5661 5663 5665 5667 5668 5669 5670 5671 5672 5674 5675 5676 5678 5679 5680 5681 5683 5684 5686 5688 5689 5691 5692 5693 5693 5694 5694 5695 5696 5696 5697 5698 5699 5700 5701 5703 5704 5706 5707 5708 5709 5710 5712 5714 5716 5717 5718 5719 5720 5721 5722 5723 5724 5724 5725 5726 5727 5728 5729 5730 5732 5733 5734 5735 5736 5736 5737 5739 5742
5660 5661 5663 5664 5665 5666 5668 5669 5670 5672 5673 5675 5676 5678 5679 5681 5682 5684 5685 5686 5687 5688 5689 5690 5690 5690 5691 5692 5692 5694 5695 5696 5698 5699 5700 5702 5703 5704 5706 5708 5709 5710 5711 5712 5713 5714 5716 5717 5718 5718 5719 5720 5721 5721 5722 5723 5724 5725 5726 5728 5729 5730 5731 5732 5733 5734 5734 5736 5737
5658 5660 5661 5662 5663 5664 5666 5668 5669 5671 5672 5674 5675 5677 5678 5679 5681 5683 5684 5684 5685 5685 5686 5687 5687 5688 5689 5689 5690 5692 5693 5694 5696 5698 5699 5700 5702 5704 5706 5709 5710 5712 5712 5712 5712 5713 5713 5714 5715 5716 5716 5717 5718 5719 5719 5720 5721 5722 5724 5725 5726 5727 5729 5729 5730 5730 5731 5732 5733
5657 5659 5659 5660 5662 5663 5665 5667 5668 5670 5672 5673 5674 5675 5677 5678 5679 5680 5681 5682 5682 5683 5684 5684 5685 5686 5687 5688 5689 5690 5691 5693 5694 5696 5697 5699 5701 5703 5705 5708 5709 5711 5712 5712 5712 5713 5713 5714 5714 5714 5714 5714 5715 5716 5716 5717 5718 5719 5721 5722 5724 5725 5725 5726 5726 5727 5728 5728 5729
5656 5657 5658 5659 5661 5662 5664 5665 5667 5669 5670 5671 5673 5674 5675 5675 5676 5677 5678 5679 5679 5680 5681 5682 5683 5684 5685 5686 5687 5689 5690 5691 5692 5694 5695 5697 5699 5700 5702 5703 5705 5706 5707 5708 5709 5710 5711 5712 5713 5713 5713 5713 5713 5714 5714 5715 5716 5717 5718 5720 5721 5722 5722 5722 5723 5723 5724 5724 5724
5654 5655 5656 5658 5659 5661 5662 5664 5665 5666 5668 5669 5670 5671 5672 5673 5674 5674 5675 5676 5677 5678 5679 5679 5680 5681 5683 5684 5685 5687 5688 5689 5690 5692 5693 5694 5696 5697 5699 5700 5701 5703 5704 5704 5705 5706 5707 5708 5709 5709 5711 5711 5712 5713 5713 5713 5714 5714 5716 5717 5718 5718 5718 5719 5719 5720 5720 5720 5721
5654 5654 5655 5656 5658 5659 5660 5661 5663 5664 5665 5666 5668 5669 5670 5671 5673 5674 5674 5675 5675 5676 5677 5678 5679 5680 5681 5682 5683 5684 5686 5687 5688 5689 5690 5692 5693 5695 5696 5698 5699 5700 5700 5701 5702 5702 5703 5704 5704 5705 5706 5707 5709 5709 5710 5711 5711 5712 5713 5715 5715 5715 5715 5715 5716 5717 5717 5717 5717
5652 5654 5654 5655 5656 5657 5658 5659 5660 5661 5663 5664 5665 5666 5667 5668 5670 5671 5673 5674 5674 5674 5675 5676 5678 5679 5680 5681 5681 5682 5684 5684 5686 5687 5688 5689 5690 5692 5694 5695 5696 5696 5697 5698 5698 5699 5699 5699 5700 5701 5702 5703 5703 5704 5706 5707 5708 5709 5709 5711 5713 5713 5713 5713 5714 5714 5714 5714 5714
5649 5651 5652 5653 5654 5655 5656 5657 5658 5659 5660 5661 5663 5664 5665 5666 5667 5668 5669 5671 5672 5673 5674 5675 5677 5678 5679 5680 5680 5680 5681 5682 5683 5684 5685 5686 5687 5688 5689 5691 5691 5692 5693 5694 5694 5695 5695 5696 5696 5697 5698 5699 5699 5700 5701 5702 5704 5705 5706 5708 5710 5710 5710 5710 5711 5712 5712 5712 5711
5647 5648 5649 5650 5651 5653 5654 5655 5657 5658 5659 5660 5662 5663 5663 5664 5665 5666 5667 5668 5670 5671 5673 5674 5675 5676 5677 5678 5679 5679 5679 5680 5680 5681 5682 5683 5684 5685 5686 5687 5688 5689 5689 5690 5691 5692 5693 5693 5694 5694 5695 5695 5695 5696 5697 5698 5699 5701 5702 5704 5706 5707 5708 5708 5709 5709 5709 5709 5709
5645 5645 5647 5648 5649 5650 5652 5653 5654 5655 5657 5658 5659 5661 5662 5663 5664 5664 5666 5667 5669 5670 5671 5672 5673 5674 5675 5676 5677 5678 5679 5678 5677 5678 5679 5680 5681 5682 5683 5684 5685 5686 5687 5688 5689 5689 5690 5691 5691 5691 5692 5692 5692 5693 5693 5693 5694 5696 5698 5700 5702 5704 5704 5705 5706 5706 5706 5705 5705
5643 5644 5645 5646 5647 5649 5650 5651 5652 5653 5654 5655 5656 5658 5659 5660 5662 5663 5665 5666 5667 5668 5670 5671 5672 5672 5673 5673 5674 5676 5676 5674 5674 5675 5676 5678 5679 5680 5681 5682 5683 5684 5685 5686 5687 5687 5688 5688 5689 5689 5689 5690 5690 5690 5691 5691 5691 5692 5694 5696 5698 5700 5701 5702 5703 5703 5702 5702 5702
5642 5643 5644 5645 5646 5647 5648 5649 5650 5651 5652 5654 5654 5656 5657 5658 5660 5662 5664 5664 5666 5667 5669 5670 5671 5671 5671 5670 5671 5671 5671 5671 5672 5674 5675 5676 5677 5678 5679 5680 5681 5682 5683 5684 5684 5685 5685 5686 5687 5687 5687 5688 5688 5688 5689 5689 5689 5690 5691 5693 5695 5697 5698 5699 5699 5699 5699 5699 5699
5641 5642 5643 5644 5644 5645 5646 5647 5649 5649 5651 5652 5653 5654 5655 5656 5658 5659 5661 5662 5664 5665 5666 5668 5669 5669 5669 5669 5668 5668 5669 5670 5671 5672 5674 5675 5675 5676 5677 5678 5679 5680 5681 5682 5682 5683 5684 5684 5684 5685 5685 5685 5686 5686 5687 5687 5688 5689 5690 5691 5693 5694 5695 5696 5696 5696 5696 5697 5697
5640 5640 5641 5642 5643 5644 5645 5646 5647 5648 5649 5650 5651 5652 5654 5655 5656 5657 5659 5660 5661 5662 5664 5665 5666 5667 5668 5669 5668 5667 5667 5669 5669 5671 5673 5675 5675 5676 5676 5677 5677 5678 5679 5679 5680 5681 5681 5682 5682 5682 5683 5683 5684 5684 5685 5685 5686 5687 5688 5689 5690 5691 5692 5692 5693 5693 5694 5694 5694
5639 5639 5640 5641 5642 5643 5644 5644 5645 5646 5647 5648 5649 5651 5652 5653 5654 5655 5657 5658 5659 5660 5661 5662 5663 5664 5665 5667 5667 5667 5667 5667 5668 5670 5672 5674 5674 5674 5674 5674 5675 5676 5676 5677 5678 5678 5679 5679 5679 5680 5680 5681 5681 5682 5682 5683 5684 5684 5685 5686 5687 5688 5689 5689 5689 5690 5690 5691 5691
5637 5638 5639 5640 5640 5641 5642 5643 5644 5644 5646 5647 5648 5649 5650 5652 5653 5654 5655 5656 5657 5658 5659 5660 5660 5661 5662 5664 5665 5666 5667 5667 5668 5669 5670 5670 5670 5670 5671 5672 5673 5673 5674 5674 5675 5675 5676 5676 5677 5677 5678 5678 5679 5679 5680 5681 5682 5682 5683 5684 5684 5685 5685 5686 5686 5687 5687 5688 5688
5636 5637 5638 5639 5639 5640 5641 5642 5643 5643 5644 5645 5646 5648 5649 5650 5652 5653 5654 5655 5656 5657 5657 5658 5659 5659 5660 5661 5662 5663 5664 5666 5667 5668 5668 5667 5667 5668 5669 5669 5670 5670 5671 5671 5672 5673 5673 5674 5674 5675 5675 5676 5677 5677 5678 5678 5679 5679 5679 5680 5680 5681 5681 5682 5683 5684 5684 5684 5685
5635 5635 5636 5638 5638 5639 5640 5641 5642 5642 5642 5643 5644 5646 5647 5649 5650 5651 5652 5653 5654 5655 5656 5657 5657 5658 5658 5659 5659 5660 5662 5663 5664 5665 5665 5665 5665 5665 5666 5666 5667 5668 5668 5669 5669 5670 5670 5671 5672 5672 5673 5673 5674 5674 5674 5675 5675 5676 5676 5677 5677 5678 5678 5679 5679 5680 5680 5681 5682
5634 5634 5635 5636 5636 5637 5638 5639 5639 5640 5640 5641 5642 5644 5645 5646 5648 5649 5650 5650 5651 5652 5653 5654 5655 5655 5656 5656 5657 5658 5659 5660 5661 5662 5662 5662 5662 5662 5663 5664 5664 5665 5665 5666 5667 5667 5668 5668 5669 5669 5670 5670 5670 5671 5671 5671 5672 5672 5673 5673 5674 5674 5675 5675 5676 5676 5677 5677 5678
5632 5633 5634 5634 5635 5636 5636 5637 5637 5638 5639 5640 5640 5641 5642 5644 5645 5646 5647 5647 5648 5649 5650 5651 5653 5653 5654 5654 5654 5655 5656 5656 5657 5658 5658 5658 5659 5659 5660 5660 5661 5662 5662 5663 5664 5664 5665 5665 5666 5666 5666 5667 5667 5667 5668 5668 5669 5669 5669 5670 5670 5671 5671 5672 5672 5673 5673 5674 5674
5630 5631 5632 5632 5633 5633 5633 5634 5634 5635 5636 5638 5638 5639 5640 5641 5642 5643 5644 5644 5645 5646 5647 5648 5649 5650 5651 5651 5651 5652 5652 5653 5654 5654 5654 5655 5655 5656 5657 5657 5658 5659 5659 5660 5660 5661 5661 5662 5662 5662 5663 5663 5664 5664 5664 5665 5665 5666 5666 5667 5667 5667 5668 5668 5669 5669 5669 5670 5670
5628 5628 5629 5629 5629 5630 5631 5631 5632 5633 5634 5634 5636 5637 5637 5639 5639 5639 5640 5641 5642 5643 5644 5644 5646 5647 5647 5648 5648 5649 5649 5649 5650 5651 5651 5652 5652 5653 5654 5654 5655 5655 5656 5656 5657 5657 5658 5658 5658 5659 5659 5659 5660 5660 5661 5661 5662 5662 5663 5663 5664 5664 5664 5664 5665 5665 5666 5666 5666
5626 5626 5626 5627 5627 5628 5628 5629 5629 5630 5631 5631 5632 5633 5634 5635 5636 5637 5637 5638 5639 5640 5641 5641 5642 5643 5644 5644 5645 5645 5646 5646 5647 5647 5648 5649 5649 5650 5651 5652 5652 5652 5652 5653 5653 5654 5654 5654 5654 5655 5655 5656 5656 5657 5657 5658 5658 5659 5659 5659 5660 5660 5660 5661 5661 5662 5662 5662 5663
5624 5624 5624 5624 5625 5625 5626 5626 5627 5627 5628 5629 5629 5630 5631 5632 5633 5634 5634 5635 5636 5637 5637 5638 5639 5639 5640 5640 5641 5642 5642 5643 5643 5644 5645 5646 5646 5647 5648 5648 5648 5648 5649 5649 5649 5650 5650 5651 5651 5651 5652 5652 5653 5653 5654 5654 5655 5655 5655 5656 5656 5657 5657 5657 5658 5658 5658 5659 5659
5621 5622 5622 5623 5623 5623 5624 5624 5624 5625 5626 5626 5627 5627 5628 5629 5629 5630 5631 5632 5633 5633 5634 5635 5635 5636 5637 5638 5638 5639 5639 5640 5640 5641 5642 5642 5643 5643 5644 5644 5644 5644 5645 5645 5646 5646 5647 5647 5647 5648 5648 5649 5649 5650 5650 5651 5651 5651 5652 5652 5653 5653 5653 5653 5654 5654 5654 5655 5655
5619 5619 5620 5620 5621 5621 5621 5622 5622 5623 5623 5624 5624 5625 5625 5626 5627 5627 5628 5629 5630 5630 5631 5632 5633 5634 5635 5636 5637 5638 5639 5639 5639 5638 5638 5638 5639 5639 5639 5639 5640 5640 5641 5642 5642 5643 5643 5643 5644 5644 5644 5645 5645 5646 5646 5647 5647 5648 5648 5648 5649 5649 5649 5650 5650 5650 5651 5651 5651